Вернуться в каталог

STARLINK-35192

АктивенСвязьVLEO
NORAD 65933·PAYLOAD·🇺🇸 United States

Запущен Oct 8, 2025 с Vandenberg Space Force Base

Loading…

Ближайшие Пролёты (ближайшие 24 часа)

TLE

СвежийSource: CelesTrak SupGP

Эпоха: Sep 14, 2026, 22:50 UTC

1 65933C 25225Z   26257.95187500 -.00011100  00000+0 -32819-3 0  2576
2 65933  53.1592   3.4014 0001000  74.9073 144.9415 15.34374181    12

Отслеживайте STARLINK-35192 в реальном времени с AllMySat

Download on the App Store